Aérodrome :
LOGIN :

S'inscrire | Disclaimer

   EN    FR    IT 

 










Légende :    VFR   VFR Marginal   IFR   IFR Intensif   IFR Très Intensif
Visi : 
Plafond : 
>= 8 km
>= 3000ft
5 à 8 km
1000 à 3000 ft
1500m à 5 km
500 à 1000 ft
800 à 1500m
200 à 500 ft
< 800m
< 200 ft
Symboles :   Orages  Brouillard  Fortes neiges  Fortes précipitations  Vent > 20 kt
SIGMETs :   Divers  Orages  Givrage  Turbulence  Onde Orograph.  Cendres Volcan.







- Altitude de l'aérodrome : 112 ft
- Code IATA : SVQ


LEZL - Sevilla San Pablo

DERNIER METAR :
  • 192030Z 22006KT 190V250 CAVOK 28/18 Q1018 NOSIG

METARs EXPIRÉS :
  • 192000Z 24005KT 200V260 CAVOK 29/18 Q1018 NOSIG
  • 191930Z 26007KT CAVOK 30/18 Q1017 NOSIG
  • 191900Z 24006KT CAVOK 30/18 Q1017 NOSIG
  • 191830Z 23004KT CAVOK 31/15 Q1017 NOSIG
  • 191800Z 00000KT CAVOK 33/11 Q1016 NOSIG

TAF TAF LEZL
Valide du 19 à 21h jusqu'au 20 à 21h UTC


192000Z 1921/2021 25006KT CAVOK TX35/2015Z TN21/2006Z
Pas de NOTAMs connus pour ce terrain.



MET'MAP, la Météo Aéronautique d'un coup d'oeil ! - Copyright ORBIFLY Décembre 2007 - Disclaimer

ORBIFLY MET'MAP TEAM :

Programmation & Développement : Alexandra Zaïnal
Conception & Développement : Baudouin d'Aumeries
Co-Programmation & Développement : Marc-Olivier Méhu
Soutien technique & logistique : Manuel Goepfert

Contact : metmap@orbifly.com




SOURCES & CREDITS :

   NOAA